Weather Roundup
Issued by NWS

Home | Current Version | Previous Version | Text Only | Print | Product List | Glossary On
Versions: 1 2 3 4 5 6 7 8 9 10 11 12 13 14 15 16 17 18 19 20 21 22 23 24 25 26 27 28 29 30 31 32 33 34 35 36 37 38 39 40 41 42 43 44 45 46 47 48 49 50
407
NZUS93 KARX 220759
HRRWXR

CURRENT HOURLY OBSERVATIONS ACROSS
MUCH OF THE UPPER MISSISSIPPI VALLEY
NATIONAL WEATHER SERVICE LA CROSSE WI
300 AM CDT TUE AUG 22 2017


...SOUTHEAST MINNESOTA...


CITY           SKY/WX    TMP DP  RH WIND       PRES   REMARKS
ROCHESTER      CLOUDY    63  62  97 W13       29.91S
ROCHESTER/MAYO FAIR      64  63  96 W10G18    29.90S
WINONA         CLOUDY    70  64  83 W7        29.86S
AUSTIN         PTCLDY    63  61  94 W8        29.92F
ALBERT LEA     CLEAR     66  64  94 W5        29.94F
DODGE CENTER   CLEAR     63  61  94 W8        29.91F
PRESTON        PTCLDY    62  60  93 W9        29.91S
OWATONNA       CLEAR     63  61  94 W9        29.92F
FARIBAULT      CLEAR     63  61  94 W10       29.92S
$$

...ELSEWHERE IN MINNESOTA...


CITY           SKY/WX    TMP DP  RH WIND       PRES   REMARKS
MINNEAPOLIS    CLEAR     65  60  84 NW7       29.89S
INTNL FALLS    MOCLDY    50  49  96 W5        29.88S
DULUTH         PTCLDY    54  54 100 NW6       29.85S
RED WING       CLOUDY    66  63  88 W7        29.86S
REDWOOD FALLS  CLEAR     61  55  81 NW12      29.98R
MANKATO        CLEAR     62  60  93 W7        29.95R
WORTHINGTON    CLEAR     61  57  87 NW13      30.04R
FAIRMONT       CLEAR     62  59  90 NW7       29.98R
$$

...SOUTHWEST WISCONSIN...


CITY           SKY/WX    TMP DP  RH WIND       PRES   REMARKS
LA CROSSE      MOCLDY    70  64  81 W10       29.85F
PRAIRIE DU CHI CLOUDY    65  62  89 SW3       29.90F
BOSCOBEL       CLOUDY    67  64  90 SW6       29.88F
LONE ROCK      CLOUDY    67  65  93 W7        29.86F
PLATTEVILLE    CLOUDY    66  66 100 W8        29.90F
FORT MC COY    CLOUDY    61  61 100 SW3       29.86S
MAUSTON-NEW LI PTSUNNY   65  63  94 W5        29.83F
VIROQUA        FAIR      62  62 100 CALM      29.89F
WIS DELLS      CLOUDY    65  62  89 W5        29.86S
$$

...ELSEWHERE IN WISCONSIN...


CITY           SKY/WX    TMP DP  RH WIND       PRES   REMARKS
MILWAUKEE      CLOUDY    75  70  84 SW13      29.81F
MADISON        CLOUDY    68  64  87 VRB7      29.85R
GREEN BAY      MOCLDY    68  65  90 W12       29.76F
EAU CLAIRE     NOT AVBL
BLACK RVR FLS  PTSUNNY   64  64 100 SW5       29.83F
MEDFORD        CLOUDY    64  62  94 W8        29.81S
WAUSAU         CLOUDY    66  62  87 W14       29.77F
WIS RAPIDS     CLOUDY    65  63  93 SW8       29.82F
MARSHFIELD     CLOUDY    65  61  87 W10       29.80F
RICE LAKE      PTCLDY    65  61  87 W9        29.85R
$$

...NORTHEAST IOWA...


CITY           SKY/WX    TMP DP  RH WIND       PRES   REMARKS
WATERLOO       CLOUDY    64  62  93 W9        29.92F
DUBUQUE        CLOUDY    66  65  96 W12       29.90F
DECORAH        CLOUDY    63  63 100 SW5       29.90F
MASON CITY     NOT AVBL
CHARLES CITY   MOCLDY    64  64 100 W7        29.94S
OELWEIN        CLOUDY    64  64 100 W8        29.93F
$$

...ELSEWHERE IN IOWA...


CITY           SKY/WX    TMP DP  RH WIND       PRES   REMARKS
DES MOINES     CLOUDY    66  65  96 NW6       29.96F
IOWA CITY      LGT RAIN  68  66  93 NW16      29.94F
FORT DODGE     PTCLDY    63  59  88 CALM      29.97F
MARSHALLTOWN   CLOUDY    64  64 100 W7        29.95F
CEDAR RAPIDS   CLOUDY    65  65 100 W10       29.91F
$$

...NORTHERN ILLINOIS...


CITY           SKY/WX    TMP DP  RH WIND       PRES   REMARKS
CHICAGO-OHARE  CLOUDY    75  70  84 SW13G22   29.86R
CHICAGO-MIDWAY CLOUDY    73  69  87 SW13      29.87R
MOLINE         CLOUDY    70  66  87 W13       29.91R
ROCKFORD       CLOUDY    73  70  90 W10       29.90R
PEORIA         RAIN      71  70  96 W8        29.93R FOG
$$

NOTE: "FAIR" INDICATES FEW OR NO CLOUDS BELOW 12,000 FEET WITH NO
SIGNIFICANT WEATHER AND/OR OBSTRUCTIONS TO VISIBILITY. WIND
SPEEDS ARE IN MILES-PER-HOUR.




USA.gov is the U.S. government's official web portal to all federal, state and local government web resources and services.